星链-2010 (STARLINK-2010 )

导读 | 豆包AI

STARLINK-2010是美国于2021年2月16日发射的星链卫星,属于SpaceX星链低轨互联网星座计划的组成部分。这类卫星主要为全球提供高速互联网接入服务,尤其服务偏远地区与网络基础设施薄弱区域,该星发射进一步扩充了星链星座的全球覆盖与服务能力,推动低轨卫星通信网络建设。

基本信息
目录编号:
47634
目录名称:
STARLINK-2010
国际标识:
2021-012Q
轨道中心:
EARTH
卫星名称:
星链-2010
卫星全名:
星链-2010 (STARLINK-2010 )
卫星状态:
已陨落 最后检测时间 2025-06-15
发射日期:
2021-02-16 UTC
国别 :
美国 (US)
星等 :
--
轨道信息
数据来源 国际轨道数据
星历时间: 2025-06-15T20:21:22+0800
轨道信息已过期271天
半长轴: 6536.549km
偏心率: 0.0002396
轨道倾角: 53.034°
近地点辐角 296.718°
升交点赤经 156.585°
平近点角 160.812°
近地点: 156.847km
远地点: 159.981km
周期: 87.656分钟
每日圈数: 16.427824
详细信息
固有亮度:
5
最大亮度:
2.5
卫星平台:
Starlink V1.0
覆盖范围:
全球
运营商:
太空探索技术公司
运营商所在国:
美国
制造商(研发单位):
太空探索技术公司
制造商所在国:
美国
使用方式:
暂无
卫星简介
星链(Starlink)计划是由太空探索技术公司(SpaceX)提出的一个巨型低轨卫星互联网星座项目,计划在2019年至2024年间在太空搭建由约1.2万颗卫星组成的“星链”网络,其中1584颗将部署在地球上空550千米处的近地轨道,并从2020年开始工作。该卫星仍在工作。